• In Spain
  • List of Countries
  • For 7 days
  • Water Temperature
  • Satellite Maps
  • Weather Map
  • Weather Widgets
  • user-avatar
    Login

    Hourly Weather Sofia

    Today, 23 September, Sunday

    Time Temperature Precipitation Wind Pressure Humidity
    00:00 +18°C° 0 mm 1 mps 714 mmHg 64%
    01:00 +18°C° 0 mm 1 mps 714 mmHg 67%
    02:00 +18°C° 0 mm 1 mps 713 mmHg 70%
    03:00 +16°C° 0 mm 1 mps 713 mmHg 72%
    04:00 +16°C° 0 mm 1 mps 713 mmHg 74%
    05:00 +16°C° 0 mm 1 mps 714 mmHg 76%
    06:00 +18°C° 0 mm 1 mps 714 mmHg 71%
    07:00 +19°C° 0 mm 1 mps 714 mmHg 67%
    08:00 +21°C° 0 mm 1 mps 714 mmHg 62%
    09:00 +23°C° 0 mm 1 mps 715 mmHg 55%
    10:00 +26°C° 0 mm 1 mps 715 mmHg 47%
    11:00 +29°C° 0 mm 1 mps 716 mmHg 39%
    12:00 +29°C° 0 mm 1 mps 715 mmHg 37%
    13:00 +30°C° 0 mm 1 mps 715 mmHg 35%
    14:00 +31°C° 0 mm 1 mps 715 mmHg 33%
    15:00 +30°C° 0 mm 1 mps 714 mmHg 34%
    16:00 +30°C° 0 mm 1 mps 714 mmHg 36%
    17:00 +29°C° 0 mm 1 mps 714 mmHg 37%
    18:00 +27°C° 0 mm 1 mps 713 mmHg 44%
    19:00 +24°C° 0 mm 1 mps 713 mmHg 51%
    20:00 +22°C° 0 mm 1 mps 713 mmHg 58%
    21:00 +21°C° 0 mm 1 mps 713 mmHg 58%
    22:00 +21°C° 0 mm 1 mps 713 mmHg 59%
    23:00 +20°C° 0 mm 1 mps 713 mmHg 60%

    Tomorrow, 24 September, Monday

    Time Temperature Precipitation Wind Pressure Humidity
    00:00 +20°C° 0 mm 1 mps 712 mmHg 60%
    01:00 +19°C° 0 mm 2 mps 712 mmHg 60%
    02:00 +19°C° 0 mm 2 mps 711 mmHg 60%
    03:00 +18°C° 0 mm 2 mps 711 mmHg 60%
    04:00 +18°C° 0 mm 2 mps 710 mmHg 60%
    05:00 +18°C° 0 mm 2 mps 710 mmHg 60%
    06:00 +19°C° 0 mm 2 mps 710 mmHg 57%
    07:00 +20°C° 0 mm 2 mps 710 mmHg 54%
    08:00 +21°C° 0 mm 2 mps 710 mmHg 50%
    09:00 +25°C° 0 mm 2 mps 710 mmHg 44%
    10:00 +27°C° 0 mm 3 mps 710 mmHg 37%
    11:00 +30°C° 0 mm 3 mps 711 mmHg 30%
    12:00 +29°C° 0 mm 5 mps 711 mmHg 34%
    13:00 +28°C° 0 mm 6 mps 711 mmHg 38%
    14:00 +27°C° 0 mm 7 mps 711 mmHg 42%
    15:00 +23°C° 0 mm 6 mps 712 mmHg 47%
    16:00 +20°C° 0 mm 6 mps 712 mmHg 51%
    17:00 +17°C° 0 mm 5 mps 713 mmHg 56%
    18:00 +15°C° 0 mm 4 mps 713 mmHg 61%
    19:00 +14°C° 0 mm 4 mps 714 mmHg 66%
    20:00 +12°C° 0 mm 3 mps 715 mmHg 71%
    21:00 +11°C° 0 mm 3 mps 715 mmHg 72%
    22:00 +11°C° 0 mm 3 mps 716 mmHg 74%
    23:00 +10°C° 0 mm 3 mps 716 mmHg 76%

    Day after tomorrow, 25 September, Tuesday

    Time Temperature Precipitation Wind Pressure Humidity
    00:00 +9°C° 0 mm 3 mps 717 mmHg 78%
    01:00 +9°C° 0 mm 2 mps 717 mmHg 79%
    02:00 +8°C° 0 mm 2 mps 717 mmHg 81%
    03:00 +8°C° 0 mm 2 mps 717 mmHg 81%
    04:00 +7°C° 0 mm 2 mps 717 mmHg 82%
    05:00 +7°C° 0 mm 2 mps 717 mmHg 83%
    06:00 +8°C° 0 mm 3 mps 718 mmHg 77%
    07:00 +8°C° 0 mm 3 mps 718 mmHg 71%
    08:00 +9°C° 0 mm 3 mps 719 mmHg 64%
    09:00 +10°C° 0 mm 4 mps 719 mmHg 54%
    10:00 +12°C° 0 mm 4 mps 719 mmHg 43%
    11:00 +14°C° 0 mm 4 mps 719 mmHg 32%
    12:00 +14°C° 0 mm 5 mps 719 mmHg 30%
    13:00 +15°C° 0 mm 5 mps 719 mmHg 28%
    14:00 +15°C° 0 mm 5 mps 719 mmHg 26%
    15:00 +15°C° 0 mm 5 mps 718 mmHg 27%
    16:00 +14°C° 0 mm 5 mps 718 mmHg 29%
    17:00 +13°C° 0 mm 5 mps 718 mmHg 30%
    18:00 +11°C° 0 mm 4 mps 719 mmHg 35%
    19:00 +9°C° 0 mm 3 mps 719 mmHg 40%
    20:00 +7°C° 0 mm 2 mps 720 mmHg 45%
    21:00 +6°C° 0 mm 2 mps 720 mmHg 47%
    22:00 +6°C° 0 mm 2 mps 720 mmHg 49%
    23:00 +6°C° 0 mm 1 mps 721 mmHg 51%

    26 September, Wednesday

    Time Temperature Precipitation Wind Pressure Humidity
    00:00 +6°C° 0 mm 1 mps 721 mmHg 53%
    01:00 +5°C° 0 mm 1 mps 721 mmHg 56%
    02:00 +5°C° 0 mm 1 mps 721 mmHg 58%
    03:00 +4°C° 0 mm 1 mps 721 mmHg 60%
    04:00 +4°C° 0 mm 1 mps 721 mmHg 62%
    05:00 +4°C° 0 mm 1 mps 722 mmHg 65%
    06:00 +5°C° 0 mm 1 mps 722 mmHg 60%
    07:00 +7°C° 0 mm 1 mps 722 mmHg 56%
    08:00 +8°C° 0 mm 1 mps 723 mmHg 51%
    09:00 +9°C° 0 mm 2 mps 723 mmHg 45%
    10:00 +12°C° 0 mm 2 mps 723 mmHg 39%
    11:00 +13°C° 0 mm 3 mps 723 mmHg 33%
    12:00 +13°C° 0 mm 3 mps 722 mmHg 30%
    13:00 +14°C° 0 mm 3 mps 722 mmHg 28%
    14:00 +15°C° 0 mm 4 mps 721 mmHg 25%
    15:00 +14°C° 0 mm 4 mps 721 mmHg 26%
    16:00 +13°C° 0 mm 3 mps 721 mmHg 28%
    17:00 +13°C° 0 mm 3 mps 721 mmHg 29%
    18:00 +11°C° 0 mm 3 mps 721 mmHg 35%
    19:00 +8°C° 0 mm 2 mps 721 mmHg 42%
    20:00 +7°C° 0 mm 1 mps 721 mmHg 48%
    21:00 +7°C° 0 mm 1 mps 722 mmHg 49%
    22:00 +6°C° 0 mm 1 mps 722 mmHg 51%
    23:00 +6°C° 0 mm 1 mps 722 mmHg 52%

    27 September, Thursday

    Time Temperature Precipitation Wind Pressure Humidity
    00:00 +5°C° 0 mm 1 mps 722 mmHg 53%
    01:00 +5°C° 0 mm 1 mps 722 mmHg 53%
    02:00 +5°C° 0 mm 1 mps 721 mmHg 53%
    03:00 +5°C° 0 mm 1 mps 721 mmHg 53%
    04:00 +5°C° 0 mm 1 mps 721 mmHg 53%
    05:00 +4°C° 0 mm 1 mps 721 mmHg 52%
    06:00 +6°C° 0 mm 1 mps 721 mmHg 47%
    07:00 +8°C° 0 mm 1 mps 721 mmHg 42%
    08:00 +9°C° 0 mm 1 mps 721 mmHg 37%
    09:00 +12°C° 0 mm 1 mps 721 mmHg 32%
    10:00 +14°C° 0 mm 2 mps 720 mmHg 27%
    11:00 +17°C° 0 mm 2 mps 720 mmHg 21%
    12:00 +18°C° 0 mm 2 mps 719 mmHg 20%
    13:00 +19°C° 0 mm 3 mps 719 mmHg 19%
    14:00 +20°C° 0 mm 3 mps 718 mmHg 18%
    15:00 +19°C° 0 mm 3 mps 718 mmHg 19%
    16:00 +18°C° 0 mm 3 mps 717 mmHg 21%
    17:00 +18°C° 0 mm 3 mps 717 mmHg 22%
    18:00 +15°C° 0 mm 2 mps 717 mmHg 26%
    19:00 +13°C° 0 mm 2 mps 716 mmHg 30%
    20:00 +10°C° 0 mm 1 mps 716 mmHg 34%
    21:00 +10°C° 0 mm 1 mps 716 mmHg 34%
    22:00 +10°C° 0 mm 1 mps 716 mmHg 34%
    23:00 +10°C° 0 mm 1 mps 716 mmHg 34%

    28 September, Friday

    Time Temperature Precipitation Wind Pressure Humidity
    00:00 +10°C° 0 mm 1 mps 716 mmHg 33%
    01:00 +10°C° 0 mm 1 mps 716 mmHg 33%
    02:00 +10°C° 0 mm 1 mps 716 mmHg 32%
    03:00 +10°C° 0 mm 1 mps 716 mmHg 32%
    04:00 +10°C° 0 mm 1 mps 716 mmHg 32%
    05:00 +10°C° 0 mm 1 mps 716 mmHg 33%
    06:00 +11°C° 0 mm 1 mps 716 mmHg 32%
    07:00 +12°C° 0 mm 1 mps 716 mmHg 32%
    08:00 +14°C° 0 mm 1 mps 716 mmHg 31%
    09:00 +16°C° 0 mm 2 mps 716 mmHg 30%
    10:00 +18°C° 0 mm 2 mps 716 mmHg 29%
    11:00 +20°C° 0 mm 3 mps 716 mmHg 29%
    12:00 +21°C° 0 mm 3 mps 716 mmHg 30%
    13:00 +21°C° 0 mm 3 mps 715 mmHg 31%
    14:00 +22°C° 0 mm 3 mps 715 mmHg 33%
    15:00 +21°C° 0 mm 3 mps 714 mmHg 35%
    16:00 +21°C° 0 mm 3 mps 714 mmHg 38%
    17:00 +20°C° 0 mm 3 mps 713 mmHg 40%
    18:00 +18°C° 0 mm 2 mps 713 mmHg 47%
    19:00 +15°C° 0 mm 2 mps 713 mmHg 54%
    20:00 +13°C° 0 mm 1 mps 713 mmHg 61%
    21:00 +13°C° 0 mm 1 mps 714 mmHg 62%
    22:00 +12°C° 0 mm 1 mps 714 mmHg 64%
    23:00 +12°C° 0 mm 1 mps 714 mmHg 65%
    Show more